Regional Weather Roundup
Issued by NWS Burlington, VT

Home | Current Version | Previous Version | Text Only | Print | Product List | Glossary On
Versions: 1 2 3 4 5 6 7 8 9 10 11 12 13 14 15 16 17 18 19 20 21 22 23 24 25 26 27 28 29 30 31 32 33 34 35 36 37 38 39 40 41 42 43 44 45 46 47 48 49 50
560
ASUS41 KBTV 220110
RWRBTV
VERMONT REGIONAL WEATHER ROUNDUP
NATIONAL WEATHER SERVICE BURLINGTON VT
800 PM EST SAT JAN 21 2017

NOTE: "FAIR" INDICATES FEW OR NO CLOUDS BELOW 12,000 FEET WITH NO
SIGNIFICANT WEATHER AND/OR OBSTRUCTIONS TO VISIBILITY.

* THESE REPORTS ARE NOT UNDER NWS QUALITY CONTROL AND/OR DO NOT
  REPORT WEATHER SUCH AS PRECIPITATION AND FOG.

VTZ001>019-220200-
_____VERMONT_____


CITY           SKY/WX    TMP DP  RH WIND       PRES   REMARKS
BURLINGTON     CLOUDY    40  38  93 CALM      29.77R
MONTPELIER     CLOUDY    36  35  96 CALM      29.78R
MORRISVILLE    FOG       33  33 100 CALM      29.77S VSB 1/4
ST. JOHNSBURY*   N/A     36  35  96 MISG      29.75R
LYNDONVILLE*   FOG       33  33  99 CALM      29.76S VSB 3/4
MIDDLEBURY*    CLOUDY    36  36 100 N3        29.76S
RUTLAND*       CLOUDY    42  40  92 CALM      29.76S
SPRINGFIELD    CLOUDY    33  31  92 CALM      29.76R
HIGHGATE*      CLOUDY    36  36 100 CALM      29.79S FOG
NEWPORT*       CLOUDY    34  34  99 CALM      29.76S FOG
BENNINGTON     CLOUDY    36  35  96 S3        29.77S FOG
SUTTON*          N/A     32 N/A N/A MISG        N/A

_____LAKE CHAMPLAIN_____


CITY           SKY/WX    TMP DP  RH WIND       PRES   REMARKS
BURTON ISLAND*   N/A     37  37 100 NE1         N/A
COLCHESTER RF*   N/A     39  39 100 NE6         N/A
DIAMOND ISL*     N/A     41  37  87 N5          N/A

$$

NYZ007-026>031-035-052-083-087-220200-
_____NORTHERN NEW YORK_____


CITY           SKY/WX    TMP DP  RH WIND       PRES   REMARKS
PLATTSBURGH    FOG       38  37  97 N5        29.78S VSB 1/2
SARANAC LAKE   FOG       37  36  96 S3        29.73S VSB 1/4
MASSENA        CLOUDY    37  37 100 CALM      29.80S FOG
OGDENSBURG*    CLOUDY    37  37 100 CALM      29.78S FOG
POTSDAM*       FOG       37  37 100 N3        29.77F VSB 1/2
WATERTOWN      FOG       38  38 100 CALM      29.76R VSB 1/4
FT DRUM        FOG       37  37 100 CALM      29.74S VSB 3/4
ALBANY         MOCLDY    42  37  82 CALM      29.78S
GLENS FALLS    FOG       32  29  88 CALM      29.76F VSB 3/4

$$
NHZ002-005-011-220200-
_____NEW HAMPSHIRE_____


CITY           SKY/WX    TMP DP  RH WIND       PRES   REMARKS
LEBANON        CLOUDY    39  35  86 CALM      29.75R
KEENE          CLEAR     31  30  96 CALM      29.77R FOG
PLYMOUTH       CLOUDY    36  34  94 CALM      29.74R
WHITEFIELD     CLOUDY    35  32  88 CALM      29.74S

$$

_____REGIONAL QUEBEC LOCATIONS_____


CITY           SKY/WX    TMP DP  RH WIND       PRES   REMARKS
MONTREAL       DRIZZLE   36  34  93 SW3       29.78S FOG
QUEBEC CITY    CLOUDY    32  27  80 W6        29.78R WCI  26
SHERBROOKE     FOG       34  32  93 W2        29.75S VSB 3/4

_____REGIONAL ONTARIO LOCATIONS_____


CITY           SKY/WX    TMP DP  RH WIND       PRES   REMARKS
OTTAWA         CLOUDY    34  34 100 CALM      29.77F FOG

______KEY______
VSB  - VISIBILITY IN MILES
WCI  - WIND CHILL INDEX
HX   - HEAT INDEX
$$
NNNN




USA.gov is the U.S. government's official web portal to all federal, state and local government web resources and services.